Date String (YYYY-MM-DD hh:mm:ss) UTC,Instrument flags,Ambient pressure (hPa),Sample flow (lpm),Bypass flow (lpm),Sample temperature (°C),Ambient temperature (°C),ASC tube jacket temperature (°C),LED temperature (°C),Box temperature (°C),Sample RH (%),Span deviation,Mass concentration (μg/m³),Mass concentration (μg/m³),Mass concentration (μg/m³)
DateTimeUTC,F1_M11,P_M11,Q1_M11,Q2_M11,T1_M11,T2_M11,T3_M11,T4_M11,T5_M11,U1_M11,ZSPAN_M11,X0_M11,X2_M11,X1_M11
2022-06-22 09:00:00,,0833.6,5.01,0.00,30.3,29.2,00.0,39.1,32.1,13.1,0000.0,0007.94,0003.42,0002.27
2022-06-22 09:01:00,,0833.6,5.01,0.00,30.3,29.2,00.0,39.1,32.1,13.1,0000.0,0008.42,0003.43,0002.26
2022-06-22 09:02:00,,0833.6,4.99,0.00,30.3,29.2,00.0,39.1,32.1,13.1,0000.0,0008.85,0003.41,0002.27
2022-06-22 09:03:00,,0833.6,4.99,0.00,30.3,29.2,00.0,39.1,32.1,13.1,0000.0,0008.93,0003.43,0002.28
2022-06-22 09:04:00,,0833.6,5.01,0.00,30.3,29.2,00.0,39.1,32.1,13.1,0000.0,0008.90,0003.43,0002.26
2022-06-22 09:05:00,,0833.6,5.01,0.00,30.3,29.3,00.0,39.1,32.1,13.0,0000.0,0009.28,0003.46,0002.27
2022-06-22 09:06:00,,0833.7,4.98,0.00,30.3,29.3,00.0,39.1,32.1,13.0,0000.0,0009.67,0003.48,0002.27
2022-06-22 09:07:00,,0833.6,5.01,0.00,30.3,29.3,00.0,39.1,32.1,13.0,0000.0,0009.82,0003.43,0002.24
2022-06-22 09:08:00,,0833.6,5.01,0.00,30.3,29.3,00.0,39.2,32.1,12.9,0000.0,0010.38,0003.44,0002.24
2022-06-22 09:09:00,,0833.6,5.00,0.00,30.3,29.3,00.0,39.2,32.1,12.9,0000.0,0009.98,0003.44,0002.22
2022-06-22 09:10:00,,0833.6,4.99,0.00,30.3,29.3,00.0,39.2,32.1,12.9,0000.0,0010.12,0003.48,0002.22
2022-06-22 09:11:00,,0833.6,5.01,0.00,30.3,29.3,00.0,39.2,32.1,12.9,0000.0,0010.94,0003.52,0002.24
2022-06-22 09:12:00,,0833.6,5.01,0.00,30.3,29.2,00.0,39.2,32.0,12.9,0000.0,0010.75,0003.55,0002.24
2022-06-22 09:13:00,,0833.6,4.99,0.00,30.3,29.2,00.0,39.2,32.0,12.9,0000.0,0010.38,0003.56,0002.23
2022-06-22 09:14:00,,0833.6,5.01,0.00,30.3,29.2,00.0,39.2,32.0,12.8,0000.0,0010.81,0003.58,0002.20
2022-06-22 09:15:00,,0833.5,4.99,0.00,30.3,29.2,00.0,39.1,32.0,12.8,0000.0,0011.04,0003.55,0002.20
2022-06-22 09:16:00,,0833.5,5.01,0.00,30.3,29.2,00.0,39.1,32.0,12.8,0000.0,0011.09,0003.54,0002.20
2022-06-22 09:17:00,,0833.5,4.99,0.00,30.3,29.2,00.0,39.1,32.0,12.7,0000.0,0010.47,0003.57,0002.20
2022-06-22 09:18:00,,0833.5,4.99,0.00,30.3,29.2,00.0,39.1,32.0,12.7,0000.0,0010.52,0003.58,0002.23
2022-06-22 09:19:00,,0833.6,5.01,0.00,30.3,29.2,00.0,39.1,32.1,12.7,0000.0,0010.34,0003.61,0002.25
2022-06-22 09:20:00,,0833.6,5.01,0.00,30.3,29.2,00.0,39.1,32.1,12.7,0000.0,0010.59,0003.61,0002.26
2022-06-22 09:21:00,,0833.5,4.99,0.00,30.3,29.2,00.0,39.2,32.1,12.6,0000.0,0010.64,0003.64,0002.26
2022-06-22 09:22:00,,0833.5,5.00,0.00,30.3,29.2,00.0,39.2,32.1,12.6,0000.0,0010.28,0003.64,0002.25
2022-06-22 09:23:00,,0833.6,5.01,0.00,30.3,29.3,00.0,39.2,32.1,12.6,0000.0,0010.11,0003.62,0002.25
2022-06-22 09:24:00,,0833.5,5.00,0.00,30.3,29.3,00.0,39.2,32.1,12.6,0000.0,0009.79,0003.62,0002.26
2022-06-22 09:25:00,,0833.5,4.99,0.00,30.3,29.3,00.0,39.2,32.1,12.7,0000.0,0009.49,0003.64,0002.28
2022-06-22 09:26:00,,0833.5,5.01,0.00,30.3,29.3,00.0,39.2,32.1,12.7,0000.0,0009.19,0003.67,0002.28
2022-06-22 09:27:00,,0833.6,4.99,0.00,30.3,29.3,00.0,39.2,32.1,12.7,0000.0,0009.00,0003.66,0002.28
2022-06-22 09:28:00,,0833.5,5.01,0.00,30.3,29.3,00.0,39.2,32.1,12.7,0000.0,0008.87,0003.63,0002.26
2022-06-22 09:29:00,,0833.5,5.01,0.00,30.3,29.3,00.0,39.2,32.1,12.8,0000.0,0008.73,0003.67,0002.25
2022-06-22 09:30:00,,0833.5,4.99,0.00,30.3,29.3,00.0,39.2,32.1,12.8,0000.0,0008.35,0003.64,0002.25
2022-06-22 09:31:00,,0833.5,4.99,0.00,30.4,29.3,00.0,39.2,32.1,12.9,0000.0,0008.01,0003.65,0002.24
2022-06-22 09:32:00,,0833.5,5.00,0.00,30.4,29.3,00.0,39.2,32.1,13.0,0000.0,0007.88,0003.61,0002.25
2022-06-22 09:33:00,,0833.4,5.03,0.00,30.4,29.3,00.0,39.2,32.1,13.0,0000.0,0007.42,0003.56,0002.27
2022-06-22 09:34:00,,0833.4,4.98,0.00,30.4,29.3,00.0,39.2,32.1,13.0,0000.0,0007.34,0003.55,0002.28
2022-06-22 09:35:00,,0833.4,5.00,0.00,30.4,29.3,00.0,39.2,32.1,13.0,0000.0,0007.42,0003.55,0002.28
2022-06-22 09:36:00,,0833.4,5.00,0.00,30.4,29.3,00.0,39.2,32.1,13.0,0000.0,0007.36,0003.52,0002.28
2022-06-22 09:37:00,,0833.4,5.00,0.00,30.4,29.3,00.0,39.2,32.1,13.1,0000.0,0007.30,0003.46,0002.27
2022-06-22 09:38:00,,0833.5,4.98,0.00,30.4,29.3,00.0,39.2,32.1,13.2,0000.0,0007.65,0003.43,0002.25
2022-06-22 09:39:00,,0833.4,5.00,0.00,30.4,29.3,00.0,39.2,32.1,13.3,0000.0,0008.04,0003.43,0002.26
2022-06-22 09:40:00,,0833.4,5.00,0.00,30.4,29.3,00.0,39.2,32.1,13.2,0000.0,0008.30,0003.37,0002.25
2022-06-22 09:41:00,,0833.4,4.99,0.00,30.4,29.3,00.0,39.2,32.1,13.0,0000.0,0008.23,0003.35,0002.25
2022-06-22 09:42:00,,0833.4,5.01,0.00,30.4,29.2,00.0,39.2,32.1,13.0,0000.0,0008.22,0003.34,0002.24
2022-06-22 09:43:00,,0833.4,5.01,0.00,30.4,29.3,00.0,39.2,32.1,13.1,0000.0,0008.25,0003.34,0002.24
2022-06-22 09:44:00,,0833.4,4.99,0.00,30.4,29.2,00.0,39.2,32.1,13.1,0000.0,0008.45,0003.34,0002.24
2022-06-22 09:45:00,,0833.4,5.00,0.00,30.4,29.2,00.0,39.2,32.1,13.2,0000.0,0008.75,0003.36,0002.24
2022-06-22 09:46:00,,0833.4,5.01,0.00,30.4,29.2,00.0,39.2,32.1,13.1,0000.0,0009.06,0003.32,0002.23
2022-06-22 09:47:00,,0833.4,5.01,0.00,30.4,29.2,00.0,39.2,32.1,13.0,0000.0,0009.04,0003.32,0002.23
2022-06-22 09:48:00,,0833.4,4.99,0.00,30.4,29.2,00.0,39.2,32.1,13.0,0000.0,0009.00,0003.34,0002.24
2022-06-22 09:49:00,,0833.4,4.99,0.00,30.4,29.2,00.0,39.2,32.1,13.0,0000.0,0008.73,0003.36,0002.25
2022-06-22 09:50:00,,0833.4,5.00,0.00,30.4,29.2,00.0,39.2,32.1,13.1,0000.0,0008.50,0003.44,0002.25
2022-06-22 09:51:00,,0833.4,5.01,0.00,30.4,29.2,00.0,39.2,32.1,13.1,0000.0,0008.25,0003.47,0002.26
2022-06-22 09:52:00,,0833.4,5.00,0.00,30.4,29.2,00.0,39.2,32.1,13.2,0000.0,0008.33,0003.51,0002.27
2022-06-22 09:53:00,,0833.4,4.99,0.00,30.4,29.2,00.0,39.2,32.1,13.3,0000.0,0008.37,0003.52,0002.28
2022-06-22 09:54:00,,0833.4,5.01,0.00,30.4,29.2,00.0,39.2,32.1,13.2,0000.0,0008.36,0003.53,0002.30
2022-06-22 09:55:00,,0833.4,5.00,0.00,30.4,29.2,00.0,39.2,32.1,13.1,0000.0,0008.15,0003.52,0002.30
2022-06-22 09:56:00,,0833.4,5.00,0.00,30.4,29.2,00.0,39.2,32.1,13.1,0000.0,0008.08,0003.52,0002.30
2022-06-22 09:57:00,,0833.4,4.99,0.00,30.3,29.2,00.0,39.2,32.1,13.2,0000.0,0007.41,0003.52,0002.30
2022-06-22 09:58:00,,0833.4,5.00,0.00,30.3,29.2,00.0,39.2,32.1,13.3,0000.0,0007.44,0003.53,0002.31
2022-06-22 09:59:00,,0833.4,5.01,0.00,30.3,29.2,00.0,39.2,32.1,13.3,0000.0,0007.38,0003.53,0002.32
